Location: Round Knob
(37.2473°N, 88.7376°W)
Time: 18:48:09
(UTC+00:00)

X-37B - Pass Details

Date: 28 September 2021
Orbit: 385 x 389 km, 45.0° (Epoch: 17 October)

Event Time Altitude Azimuth Distance (km) Brightness Sun altitude
Exits shadow 10:07:34 19° 355° (N) 986 2.7 -20.7°
Maximum altitude 10:07:40 19° 358° (N) 986 2.7 -20.7°
Drops below altitude 10° 10:10:04 10° 47° (NE) 1,414 4.3 -20.2°
Sets 10:12:32 0° 66° (ENE) 2,269 6.0 -19.7°
